FENGYUN 1C DEB

Satellite information

Favourite Embed

Satellite Type and Status

DEBRISIN ORBIT

Key statistics

Satellite FENGYUN 1C DEB at a glance.

Uptime

9714

Days in orbit

Revolutions

≈ 13.7

Per day

Orbit

SSO

Sun Synchronous Orbit

Inclination

98.3

Latest

Satellite identification and parameters

Extended collection of information and parameters for FENGYUN 1C DEB.

Object identification

Identified? True

Debris? True

Object name: FENGYUN 1C DEB

International designator: 1999-025FD

Object number (NORAD): 29859

Object ID (CCSDS): 29859

Country: PEOPLES REPUBLIC OF CHINA (PRC)

Current information (Y/N): Y

RCS size: SMALL

Orbital parameters

Period: 104.802 minutes

Inclination: 98.3355 deg

SMA: 7363.299 km

Apoapsis: 1202.389 km

Periapsis: 767.938 km

RAAN: 180.3872 deg

Eccentricy: 0.02950111

Argument of periapsis: 216.2781 deg

Mean anomaly: 141.8046 deg

Mean motion: 13.74023449 rev/day

Mean motion (dot): 0.00005574 rev/day2

B* drag term: 0.0043599827 1/REarth

Two-line elements (TLE)

Creation date: Dec. 11, 2025, 7:14 p.m.

Reference frame: TEME

Reference center: EARTH

Epoch: Dec. 11, 2025, 12:25 p.m. UTC

TLE line 0: 0 FENGYUN 1C DEB

TLE line 1: 1 29859U 99025FD 25345.51782409 .00005574 00000-0 43600-2 0 9999

TLE line 2: 2 29859 98.3355 180.3872 0295011 216.2781 141.8046 13.74023449939633

Live tracking on map

Real-time ground track for satellite FENGYUN 1C DEB.

In-orbit conjunctions

A list of the most updated potential collisions computed for object FENGYUN 1C DEB.

Target Orbit TCA Probability of collision Miss distance Type
CZ-6A DEB LEO 2025-10-24 02:06:33 0.002636207 19.0 (m) DEBRIS
COSMOS 886 DEB LEO 2025-02-07 09:27:52 0.000106331 125.0 (m) DEBRIS
RADARSAT SSO 2024-12-21 16:51:32 0.0006596486 247.0 (m) PAYLOAD

Associated space launch

Chinese polar orbiting meteorological satellite

FENGYUN 1C DEB was lifted into orbit during the mission ‘Long March 4B | Feng Yun 1C’, on board a Long March 4B space rocket.

The launch took place on May 10, 1999, 1:33 a.m. from Launch Complex 7.

For more information about the launch, click the button.

Launch to space Long March 4B | Feng Yun 1C
Long March 4B | Feng Yun 1C

Agency: N/A

Status: Launch Successful

Launch date: May 10, 1999, 1:33 a.m. UTC

Rocket: Long March 4B

Launch pad: Launch Complex 7

Location: Taiyuan Satellite Launch Center, People's Republic of China

...

Latest news about this satellite

There are no fresh news available about this satellite. Check back as we update our databases every day.


Newsletter sign-up

Weekly statistics, charts and insights to help you stay on top of the space industry.